This is the latest recevied weather packets stored in our database for station/object KF0PEC-13. If no packets are shown the sender has not sent any weather packets the latest 10 day(s).
| Time | Temp. | Humidity | Pressure | Rain* | Wind** | Luminosity | Snow |
|---|---|---|---|---|---|---|---|
| 1777829722 | 20° C | 21% | 1018.8 hPa | 0 mm | - | - | - |
| 1777827326 | 20° C | 23% | 1019.4 hPa | 0 mm | - | - | - |
| 1777825535 | 18.33° C | 25% | 1019.6 hPa | 0 mm | - | - | - |
| 1777823119 | 17.22° C | 27% | 1019.8 hPa | 0 mm | - | - | - |
| 1777802725 | 3.89° C | 62% | 1019.6 hPa | 0 mm | - | - | - |
| 1777798517 | 3.33° C | 63% | 1020 hPa | 0 mm | - | - | - |
| 1777794330 | 4.44° C | 58% | 1020.4 hPa | 0 mm | - | - | - |
| 1777790122 | 5° C | 62% | 1020.9 hPa | 0 mm | - | - | - |
| 1777787122 | 6.11° C | 58% | 1021.1 hPa | 0 mm | - | - | - |
| 1777786518 | 6.11° C | 57% | 1021.2 hPa | 0 mm | - | - | - |
| 1777778122 | 10.56° C | 37% | 1020.7 hPa | 0 mm | - | - | - |
| 1777774518 | 13.89° C | 29% | 1020.4 hPa | 0 mm | - | - | - |
| 1777772123 | 15.56° C | 25% | 1020 hPa | 0 mm | - | - | - |
| 1777767351 | 17.22° C | 24% | 1020 hPa | 0 mm | - | - | - |
| 1777765519 | 17.78° C | 24% | 1020.1 hPa | 0 mm | - | - | - |
| 1777764331 | 17.78° C | 24% | 1020.4 hPa | 0 mm | - | - | - |
| 1777763727 | 18.33° C | 24% | 1020.4 hPa | 0 mm | - | - | - |
| 1777760727 | 18.89° C | 24% | 1020.7 hPa | 0 mm | - | - | - |
| 1777754143 | 17.78° C | 27% | 1022.2 hPa | 0 mm | - | - | - |
| 1777753519 | 18.33° C | 26% | 1022.3 hPa | 0 mm | - | - | - |
| 1777752352 | 18.33° C | 27% | 1022.4 hPa | 0 mm | - | - | - |
| 1777751728 | 17.78° C | 28% | 1022.4 hPa | 0 mm | - | - | - |
| 1777745728 | 17.22° C | 27% | 1023.5 hPa | 0 mm | - | - | - |
| 1777745124 | 16.67° C | 27% | 1023.6 hPa | 0 mm | - | - | - |
| 1777744540 | 17.22° C | 25% | 1023.7 hPa | 0 mm | - | - | - |
* Rain latest hour (hover to see other rain measurements)
** Current wind speed in m/s (hover to see current wind gust speed)